User: anonymous   Login
Location: Nairn
(57.5833°N, 3.8667°W)
Time: 12:40:30
(UTC+00:00)
Language:

Altair - Orbit

View from above orbital plane
View from above orbital plane
View from above satellite
View from above satellite

Ground track
Ground track

The orbit data is extracted from the following two-line orbital elements,

1    50U 60009B   22276.01858723 -.00000093  00000-0 -80982-4 0  9998
2    50  47.2335  41.7347 0113441 301.7603  57.2175 12.20122172772936
Epoch (UTC): 03 October 2022 00:26:45
Eccentricity: 0.0113441
inclination: 47.2335°
perigee height: 1501 km
apogee height: 1682 km
right ascension of ascending node: 41.7347°
argument of perigee: 301.7603°
revolutions per day: 12.20122172
mean anomaly at epoch: 57.2175°
orbit number at epoch: 77293

The dashed part of the orbit path shows where the satellite is in the earth's shadow,  

DLR